When you browse on this site, cookies collect data to enhance your experience and personalize the content and advertising you see.
Visit our Privacy Policy to learn more. By continuing to use the site, you agree to this use of cookies and data.

Hourly Weather Annaba

Today, 15 July, Wednesday

Time Temperature Precipitation Wind Pressure Humidity
00:00 +25°C° 0.1 mm 1 mps 759 mmHg 78%
01:00 +23°C° 0 mm 0 mps 758 mmHg 81%
02:00 +24°C° 0.2 mm 1 mps 758 mmHg 82%
03:00 +24°C° 0.2 mm 1 mps 758 mmHg 82%
04:00 +24°C° 0.2 mm 2 mps 758 mmHg 83%
05:00 +24°C° 0.7 mm 2 mps 758 mmHg 83%
06:00 +24°C° 0.7 mm 1 mps 759 mmHg 83%
07:00 +24°C° 0.7 mm 1 mps 759 mmHg 82%
08:00 +26°C° 0.4 mm 1 mps 759 mmHg 74%
09:00 +28°C° 0.4 mm 1 mps 759 mmHg 67%
10:00 +29°C° 0.4 mm 1 mps 759 mmHg 59%
11:00 +30°C° 0.2 mm 2 mps 759 mmHg 56%
12:00 +31°C° 0.2 mm 3 mps 759 mmHg 53%
13:00 +33°C° 0.2 mm 4 mps 759 mmHg 50%
14:00 +32°C° 0.3 mm 4 mps 759 mmHg 53%
15:00 +32°C° 0.3 mm 4 mps 759 mmHg 55%
16:00 +30°C° 0.3 mm 4 mps 759 mmHg 58%
17:00 +29°C° 0 mm 4 mps 759 mmHg 58%
18:00 +29°C° 0 mm 3 mps 759 mmHg 58%
19:00 +28°C° 0 mm 3 mps 760 mmHg 58%
20:00 +27°C° 0 mm 2 mps 760 mmHg 62%
21:00 +26°C° 0 mm 1 mps 761 mmHg 66%
22:00 +25°C° 0 mm 1 mps 761 mmHg 70%
23:00 +25°C° 0 mm 1 mps 761 mmHg 71%

Tomorrow, 16 July, Thursday

Time Temperature Precipitation Wind Pressure Humidity
00:00 +25°C° 0 mm 1 mps 761 mmHg 72%
01:00 +24°C° 0 mm 1 mps 761 mmHg 73%
02:00 +24°C° 0 mm 1 mps 760 mmHg 74%
03:00 +24°C° 0 mm 1 mps 760 mmHg 74%
04:00 +24°C° 0 mm 1 mps 760 mmHg 75%
05:00 +24°C° 0 mm 1 mps 760 mmHg 73%
06:00 +25°C° 0 mm 1 mps 760 mmHg 70%
07:00 +26°C° 0 mm 1 mps 760 mmHg 67%
08:00 +27°C° 0 mm 2 mps 761 mmHg 62%
09:00 +28°C° 0 mm 2 mps 761 mmHg 57%
10:00 +29°C° 0 mm 2 mps 761 mmHg 52%
11:00 +30°C° 0 mm 3 mps 761 mmHg 51%
12:00 +30°C° 0 mm 3 mps 761 mmHg 49%
13:00 +32°C° 0 mm 4 mps 760 mmHg 48%
14:00 +32°C° 0 mm 4 mps 760 mmHg 49%
15:00 +30°C° 0 mm 4 mps 760 mmHg 50%
16:00 +30°C° 0 mm 5 mps 760 mmHg 51%
17:00 +29°C° 0 mm 4 mps 760 mmHg 54%
18:00 +28°C° 0 mm 4 mps 760 mmHg 58%
19:00 +27°C° 0 mm 3 mps 760 mmHg 62%
20:00 +26°C° 0 mm 3 mps 760 mmHg 66%
21:00 +25°C° 0 mm 2 mps 760 mmHg 70%
22:00 +24°C° 0 mm 1 mps 761 mmHg 74%
23:00 +24°C° 0 mm 1 mps 760 mmHg 75%

Day after tomorrow, 17 July, Friday

Time Temperature Precipitation Wind Pressure Humidity
00:00 +24°C° 0 mm 1 mps 760 mmHg 76%
01:00 +23°C° 0 mm 1 mps 760 mmHg 78%
02:00 +23°C° 0 mm 1 mps 760 mmHg 79%
03:00 +23°C° 0 mm 1 mps 759 mmHg 80%
04:00 +23°C° 0 mm 1 mps 759 mmHg 81%
05:00 +23°C° 0 mm 1 mps 759 mmHg 78%
06:00 +24°C° 0 mm 1 mps 759 mmHg 75%
07:00 +25°C° 0 mm 2 mps 760 mmHg 71%
08:00 +26°C° 0 mm 2 mps 759 mmHg 65%
09:00 +27°C° 0 mm 3 mps 759 mmHg 59%
10:00 +29°C° 0 mm 3 mps 759 mmHg 52%
11:00 +29°C° 0 mm 4 mps 759 mmHg 51%
12:00 +30°C° 0 mm 4 mps 759 mmHg 50%
13:00 +30°C° 0 mm 5 mps 759 mmHg 49%
14:00 +30°C° 0 mm 5 mps 759 mmHg 50%
15:00 +30°C° 0 mm 5 mps 758 mmHg 51%
16:00 +30°C° 0 mm 5 mps 758 mmHg 52%
17:00 +29°C° 0 mm 5 mps 758 mmHg 56%
18:00 +28°C° 0 mm 4 mps 758 mmHg 60%
19:00 +27°C° 0 mm 4 mps 758 mmHg 64%
20:00 +26°C° 0 mm 3 mps 759 mmHg 69%
21:00 +25°C° 0 mm 3 mps 759 mmHg 73%
22:00 +24°C° 0 mm 2 mps 759 mmHg 77%
23:00 +24°C° 0 mm 2 mps 759 mmHg 78%

18 July, Saturday

Time Temperature Precipitation Wind Pressure Humidity
00:00 +24°C° 0 mm 3 mps 759 mmHg 79%
01:00 +22°C° 0 mm 3 mps 759 mmHg 80%
02:00 +22°C° 0 mm 3 mps 759 mmHg 81%
03:00 +22°C° 0 mm 3 mps 758 mmHg 82%
04:00 +22°C° 0 mm 4 mps 758 mmHg 83%
05:00 +23°C° 0 mm 4 mps 758 mmHg 79%
06:00 +23°C° 0 mm 4 mps 758 mmHg 76%
07:00 +25°C° 0 mm 4 mps 759 mmHg 72%
08:00 +26°C° 0 mm 5 mps 759 mmHg 67%
09:00 +28°C° 0 mm 5 mps 759 mmHg 62%
10:00 +29°C° 0 mm 6 mps 759 mmHg 57%
11:00 +29°C° 0 mm 6 mps 759 mmHg 55%
12:00 +30°C° 0 mm 6 mps 759 mmHg 53%
13:00 +32°C° 0 mm 6 mps 759 mmHg 51%
14:00 +30°C° 0 mm 6 mps 758 mmHg 52%
15:00 +30°C° 0 mm 6 mps 758 mmHg 53%
16:00 +30°C° 0 mm 7 mps 758 mmHg 53%
17:00 +29°C° 0 mm 6 mps 758 mmHg 57%
18:00 +28°C° 0 mm 5 mps 758 mmHg 60%
19:00 +27°C° 0 mm 5 mps 759 mmHg 64%
20:00 +26°C° 0 mm 4 mps 759 mmHg 69%
21:00 +25°C° 0 mm 3 mps 759 mmHg 73%
22:00 +24°C° 0 mm 2 mps 760 mmHg 78%
23:00 +24°C° 0 mm 2 mps 760 mmHg 79%

19 July, Sunday

Time Temperature Precipitation Wind Pressure Humidity
00:00 +24°C° 0 mm 2 mps 759 mmHg 80%
01:00 +23°C° 0 mm 2 mps 759 mmHg 81%
02:00 +23°C° 0 mm 2 mps 759 mmHg 81%
03:00 +23°C° 0 mm 2 mps 759 mmHg 82%
04:00 +23°C° 0 mm 2 mps 759 mmHg 83%
05:00 +23°C° 0 mm 2 mps 759 mmHg 80%
06:00 +24°C° 0 mm 2 mps 759 mmHg 76%
07:00 +25°C° 0 mm 2 mps 759 mmHg 73%
08:00 +26°C° 0 mm 2 mps 760 mmHg 65%
09:00 +28°C° 0 mm 2 mps 760 mmHg 57%
10:00 +29°C° 0 mm 2 mps 760 mmHg 50%
11:00 +30°C° 0 mm 3 mps 760 mmHg 48%
12:00 +31°C° 0 mm 3 mps 760 mmHg 46%
13:00 +32°C° 0 mm 4 mps 760 mmHg 44%
14:00 +32°C° 0 mm 4 mps 759 mmHg 46%
15:00 +32°C° 0 mm 4 mps 759 mmHg 48%
16:00 +32°C° 0 mm 4 mps 759 mmHg 50%
17:00 +30°C° 0 mm 4 mps 759 mmHg 56%
18:00 +28°C° 0 mm 3 mps 759 mmHg 62%
19:00 +27°C° 0 mm 2 mps 759 mmHg 68%
20:00 +26°C° 0 mm 2 mps 760 mmHg 73%
21:00 +25°C° 0 mm 1 mps 760 mmHg 78%
22:00 +22°C° 0 mm 0 mps 761 mmHg 83%
23:00 +22°C° 0 mm 0 mps 760 mmHg 85%

20 July, Monday

Time Temperature Precipitation Wind Pressure Humidity
00:00 +24°C° 0 mm 1 mps 760 mmHg 86%
01:00 +23°C° 0 mm 1 mps 760 mmHg 87%
02:00 +23°C° 0 mm 1 mps 760 mmHg 88%
03:00 +23°C° 0 mm 1 mps 760 mmHg 88%
04:00 +23°C° 0 mm 1 mps 760 mmHg 89%
05:00 +23°C° 0 mm 1 mps 760 mmHg 85%
06:00 +24°C° 0 mm 1 mps 760 mmHg 81%
07:00 +25°C° 0 mm 1 mps 760 mmHg 77%
08:00 +27°C° 0 mm 1 mps 760 mmHg 68%
09:00 +29°C° 0 mm 1 mps 760 mmHg 59%
10:00 +31°C° 0 mm 2 mps 761 mmHg 49%
11:00 +31°C° 0 mm 2 mps 760 mmHg 47%
12:00 +33°C° 0 mm 3 mps 760 mmHg 45%
13:00 +34°C° 0 mm 3 mps 760 mmHg 43%
14:00 +33°C° 0 mm 4 mps 760 mmHg 43%
15:00 +33°C° 0 mm 4 mps 759 mmHg 43%
16:00 +33°C° 0 mm 4 mps 759 mmHg 43%
17:00 +32°C° 0 mm 4 mps 759 mmHg 49%
18:00 +30°C° 0 mm 3 mps 760 mmHg 54%
19:00 +28°C° 0 mm 3 mps 760 mmHg 60%
20:00 +27°C° 0 mm 2 mps 760 mmHg 66%
21:00 +26°C° 0 mm 2 mps 760 mmHg 73%
22:00 +25°C° 0 mm 1 mps 761 mmHg 79%
23:00 +24°C° 0 mm 1 mps 761 mmHg 79%
Show more